Location: Celina Division
(33.3022°N, 96.7580°W)
Time: 19:24:39
(UTC+00:00)

H-2A R/B (2) - Pass Details

Date: 02 July 2022
Orbit: 428 x 34396 km, 28.9° (Epoch: 07 August)

Event Time Altitude Azimuth Distance (km) Brightness Sun altitude
Rises 10:43:19 0° 218° (SW) 21,143 8.7 -7.7°
Reaches altitude 10° 11:28:55 10° 214° (SW) 27,568 9.3 0.5°
Maximum altitude 19:25:41 72° 189° (S) 2,021 6.3 74.2°
Drops below altitude 10° 19:31:22 10° 105° (ESE) 2,640 4.8 73.2°
Sets 19:32:46 0° 103° (ESE) 3,205 5.1 73.0°
